IQ0OG-3 Weather Reports


time (UTC)temp
C
wind
direction
speed
KPH
gust
KPH
rain 1hr
cm
rain 24hr
cm
rain mn
cm
humidity
%
barometer
mb
20260508072012 16 0 0.0 3.2 0.00 0.05 0.05 69 1011.0
20260508071011 15 0 0.0 3.2 0.00 0.05 0.05 71 1011.1
20260508070012 15 275 1.6 3.2 0.00 0.05 0.05 73 1011.2
20260508064012 14 0 0.0 3.2 0.00 0.05 0.05 74 1010.8
20260508063011 14 0 0.0 3.2 0.00 0.05 0.05 73 1010.9
20260508062012 14 248 3.2 3.2 0.00 0.05 0.05 72 1010.9
20260508060012 13 278 3.2 3.2 0.00 0.05 0.05 75 1010.8
20260508055011 13 259 3.2 3.2 0.00 0.05 0.05 75 1010.7
20260508053011 13 285 3.2 6.4 0.00 0.05 0.05 78 1010.4
20260508052012 13 261 1.6 6.4 0.00 0.05 0.05 75 1010.5
20260508050012 13 273 3.2 6.4 0.00 0.05 0.05 78 1010.4
20260508045011 12 275 3.2 6.4 0.00 0.05 0.05 79 1010.6
20260508044012 12 276 3.2 6.4 0.00 0.05 0.05 78 1010.4
20260508043013 12 283 3.2 6.4 0.00 0.05 0.05 80 1010.2
20260508042011 12 278 3.2 6.4 0.03 0.05 0.05 81 1010.0
20260508041011 12 280 3.2 6.4 0.05 0.05 0.05 83 1010.0
20260508035011 12 279 3.2 6.4 0.05 0.05 0.05 84 1010.2
20260508034011 12 256 3.2 6.4 0.05 0.05 0.05 84 1009.9
20260508033011 12 239 1.6 3.2 0.05 0.05 0.05 83 1010.0
20260508031011 13 240 3.2 9.7 0.00 0.00 0.00 85 1010.1
20260508025011 15 210 3.2 6.4 0.00 0.00 0.00 70 1009.6
20260508024011 14 158 1.6 3.2 0.00 0.00 0.00 71 1009.8
20260508023011 15 54 3.2 6.4 0.00 0.00 0.00 70 1009.5
20260508022011 15 292 3.2 6.4 0.00 0.00 0.00 60 1009.4
20260508020011 15 295 1.6 6.4 0.00 0.00 0.00 61 1009.6
20260508015011 16 276 3.2 6.4 0.00 0.00 0.00 60 1009.8
20260508013010 16 322 1.6 6.4 0.00 0.00 0.00 61 1009.5
20260508012011 16 300 1.6 6.4 0.00 0.00 0.00 65 1009.5
20260508011011 16 294 3.2 6.4 0.00 0.00 0.00 62 1009.4
20260508010011 16 304 1.6 6.4 0.00 0.00 0.00 63 1009.5
20260508005010 15 243 3.2 6.4 0.00 0.00 0.00 65 1009.3
20260508004011 15 0 0.0 3.2 0.00 0.00 0.00 67 1009.3
20260508003010 15 320 1.6 6.4 0.00 0.00 0.00 67 1009.4
20260508002012 15 307 1.6 6.4 0.00 0.00 0.00 66 1009.4
20260508001010 15 0 0.0 6.4 0.00 0.00 0.00 67 1009.6
20260508000011 15 0 0.0 3.2 0.00 0.00 0.00 67 1009.8
20260507234011 15 266 1.6 3.2 0.00 0.00 0.00 69 1010.1
20260507233011 15 272 3.2 6.4 0.00 0.00 0.00 70 1010.3
20260507232011 15 276 1.6 6.4 0.00 0.00 0.00 71 1010.2
20260507230013 15 274 3.2 3.2 0.00 0.00 0.00 70 1010.4
20260507225010 15 0 0.0 3.2 0.00 0.00 0.00 69 1010.4
20260507224011 15 248 1.6 3.2 0.00 0.00 0.00 69 1010.6
20260507222011 15 265 3.2 3.2 0.00 0.00 0.00 70 1010.7
20260507221011 15 265 1.6 3.2 0.00 0.00 0.00 69 1010.5
20260507220011 15 279 1.6 3.2 0.00 0.00 0.00 70 1010.7
20260507214010 15 266 3.2 3.2 0.00 0.00 0.00 73 1010.6
20260507212011 15 0 0.0 3.2 0.00 0.00 0.00 76 1010.9
20260507211010 15 0 0.0 3.2 0.00 0.00 0.00 76 1011.0
20260507210013 15 271 3.2 3.2 0.00 0.00 0.00 78 1010.8
20260507205010 15 281 3.2 3.2 0.00 0.00 0.00 78 1010.9
20260507204011 15 239 1.6 3.2 0.00 0.00 0.00 77 1010.9
20260507203010 15 266 1.6 6.4 0.00 0.00 0.00 79 1011.1
20260507202010 15 272 1.6 3.2 0.00 0.00 0.00 79 1011.0
20260507201010 15 270 3.2 3.2 0.00 0.00 0.00 80 1011.1
20260507200011 15 247 1.6 3.2 0.00 0.00 0.00 82 1011.1
20260507195010 15 0 0.0 3.2 0.00 0.00 0.00 84 1010.9
20260507194010 15 0 0.0 3.2 0.00 0.00 0.00 85 1010.9
20260507192012 15 280 1.6 3.2 0.00 0.00 0.00 87 1010.6
20260507190011 15 272 3.2 3.2 0.00 0.03 0.00 87 1010.6
20260507185010 15 0 0.0 3.2 0.00 0.03 0.00 88 1010.6
20260507184010 14 269 1.6 3.2 0.00 0.03 0.00 88 1010.6
20260507183010 14 273 3.2 3.2 0.00 0.03 0.00 87 1010.5
20260507182010 14 0 0.0 3.2 0.00 0.03 0.00 87 1010.4
20260507181010 15 0 0.0 3.2 0.00 0.03 0.00 86 1010.4
20260507180010 15 0 0.0 0.0 0.00 0.03 0.00 85 1010.6
20260507175010 15 0 0.0 0.0 0.00 0.03 0.00 85 1010.5
20260507174009 15 0 0.0 0.0 0.00 0.03 0.00 84 1010.3
20260507173010 16 0 0.0 0.0 0.00 0.03 0.00 83 1010.1
20260507172010 16 0 0.0 3.2 0.00 0.03 0.00 82 1010.4
20260507171009 15 5 1.6 3.2 0.00 0.03 0.00 82 1010.6
20260507170010 16 0 0.0 3.2 0.00 0.03 0.00 84 1010.6
20260507165010 15 4 3.2 6.4 0.00 0.03 0.00 84 1010.5
20260507164010 15 0 0.0 6.4 0.00 0.03 0.00 84 1010.7
20260507163009 15 6 3.2 6.4 0.00 0.03 0.00 86 1011.0
20260507161009 16 18 1.6 6.4 0.00 0.10 0.00 87 1011.0
20260507160010 16 0 0.0 3.2 0.00 0.20 0.00 87 1011.2
20260507155010 16 0 0.0 6.4 0.00 0.23 0.00 86 1011.2
20260507154010 16 0 0.0 6.4 0.00 0.28 0.00 86 1011.0
20260507153009 16 55 1.6 6.4 0.00 0.30 0.00 86 1011.1
20260507152010 16 26 1.6 6.4 0.00 0.30 0.00 86 1011.3
20260507150010 16 18 3.2 6.4 0.00 0.33 0.00 85 1011.5
20260507144010 15 59 3.2 9.7 0.00 0.36 0.00 87 1011.4
20260507143009 15 89 6.4 11.3 0.00 0.38 0.00 88 1011.2
20260507142010 16 82 6.4 11.3 0.00 0.38 0.00 86 1011.4
20260507141009 16 74 4.8 9.7 0.00 0.38 0.00 85 1011.3
20260507140012 16 78 4.8 11.3 0.00 0.38 0.00 87 1011.4
20260507135009 16 79 6.4 11.3 0.00 0.38 0.00 86 1011.5
20260507134010 16 63 3.2 9.7 0.00 0.38 0.00 85 1011.7
20260507133009 16 63 4.8 9.7 0.00 0.38 0.00 85 1011.7
20260507132009 17 72 4.8 9.7 0.00 0.38 0.00 83 1011.7
20260507131009 17 45 3.2 6.4 0.00 0.38 0.00 80 1011.8
20260507130010 17 68 3.2 11.3 0.00 0.38 0.00 81 1011.6
20260507125011 17 64 4.8 9.7 0.00 0.38 0.00 80 1011.6
20260507124010 17 0 0.0 9.7 0.00 0.38 0.00 79 1011.8
20260507123010 17 79 4.8 9.7 0.00 0.38 0.00 81 1011.9
20260507121010 18 66 3.2 6.4 0.00 0.38 0.00 79 1012.2
20260507115009 17 80 6.4 11.3 0.00 0.43 0.00 79 1012.1
20260507114009 17 59 1.6 9.7 0.00 0.43 0.00 80 1012.1
20260507110010 17 87 1.6 11.3 0.00 0.46 0.00 81 1012.3
20260507105009 17 84 6.4 9.7 0.00 0.46 0.00 82 1012.4
20260507103009 16 358 4.8 9.7 0.00 0.46 0.00 83 1012.5
20260507101009 16 71 3.2 6.4 0.00 0.46 0.00 84 1012.5
20260507100009 16 72 4.8 6.4 0.00 0.46 0.00 85 1012.6
20260507095009 16 75 3.2 6.4 0.00 0.46 0.00 85 1012.7
20260507094009 16 45 3.2 6.4 0.00 0.46 0.00 86 1012.6
20260507092009 15 61 1.6 6.4 0.00 0.46 0.00 88 1012.7
20260507090009 15 38 3.2 6.4 0.00 0.46 0.00 88 1012.5
20260507085009 15 42 1.6 6.4 0.00 0.46 0.00 88 1012.6
20260507084009 16 69 3.2 6.4 0.00 0.46 0.00 88 1012.5
20260507083008 16 46 3.2 9.7 0.00 0.46 0.00 86 1012.3
20260507082009 16 73 3.2 6.4 0.00 0.46 0.00 85 1012.4
20260507081008 16 29 1.6 6.4 0.00 0.46 0.00 84 1012.3
20260507080009 16 18 1.6 6.4 0.00 0.46 0.00 84 1012.2
20260507075009 16 12 3.2 6.4 0.00 0.46 0.00 85 1012.6
20260507074009 16 30 1.6 3.2 0.00 0.46 0.00 85 1012.4
20260507073008 15 0 0.0 3.2 0.00 0.46 0.00 87 1012.6